Regional Weather Roundup
Issued by NWS

Home | Current Version | Previous Version | Graphics & Text | Print | Product List | Glossary On
Versions: 1 2 3 4 5 6 7 8 9 10 11 12 13 14 15 16 17 18 19 20 21 22 23 24 25 26 27
000
ASUS45 KCYS 271710
RWRWY

WYOMING REGIONAL WEATHER ROUNDUP
NATIONAL WEATHER SERVICE CHEYENNE WY
1100 AM MDT MON MAR 27 2017

NOTE:  "FAIR" INDICATES FEW OR NO CLOUDS BELOW 12,000 FEET
WITH NO SIGNIFICANT WEATHER AND/OR OBSTRUCTIONS TO VISIBILITY.

WYZ001-271800-
YELLOWSTONE NATIONAL PARK

CITY           SKY/WX    TMP DP  RH WIND       PRES   REMARKS
LK YELLOWSTONE   N/A     33  29  85 VRB3      29.91S
W YELLOWSTONE  NOT AVBL

$$
WYZ002>013-054>058-071-098>099-271800-
NORTHERN WYOMING

CITY           SKY/WX    TMP DP  RH WIND       PRES   REMARKS
JACKSON        CLOUDY    39  34  81 W5        29.90F
CODY           FAIR      49  27  42 E7        29.86S
GREYBULL       FAIR      53  30  41 CALM      29.84S
WORLAND        FAIR      51  33  50 CALM      29.85S
SHERIDAN       FAIR      55  36  48 N5        29.84S
BUFFALO        FAIR      55  32  41 VRB5      29.85R
GILLETTE       FAIR      50  35  56 S7        29.84F
HULETT         FAIR      55  32  41 E7        29.86S
NEWCASTLE      FAIR      50  36  57 SE9G18    29.87S

$$
WYZ014>020-022>026-101>103-271800-
CENTRAL WYOMING

CITY           SKY/WX    TMP DP  RH WIND       PRES   REMARKS
BIG PINEY      FAIR      36  26  67 CALM      29.93S
PINEDALE       FAIR      36  23  60 SE3       29.93F
DUBOIS         FAIR      41  19  42 W14G22    29.87S
LANDER         FAIR      48  23  37 E5        29.86S
RIVERTON       FAIR      47  27  45 VRB3      29.87S
CASPER         FAIR      50  27  40 S13       29.87S
DOUGLAS        FAIR      54  24  31 W20       29.86F

$$
WYZ021-027>030-104>119-271800-
SOUTHERN WYOMING

CITY           SKY/WX    TMP DP  RH WIND       PRES   REMARKS
EVANSTON       FAIR      40  29  64 SE5       29.88F
KEMMERER         N/A     37  28  70 CALM      29.92S
FORT BRIDGER   PTSUNNY   42  36  80 SE9       29.93
ROCK SPRINGS   FAIR      46  25  43 SW6       29.92F
DIXON            N/A     48  28  45 W5        29.95F
RAWLINS        FAIR      47  21  35 SW13      29.91F
SARATOGA       FAIR      45  25  45 SE3       29.93F
LARAMIE        CLOUDY    45  23  42 SW13      29.92F
CHEYENNE       FAIR      49  35  58 S12       29.93F
TORRINGTON     FAIR      56  32  40 SW8       29.87F
PINE BLUFFS    FAIR      54  36  50 SW12G18   29.92F

$$




USA.gov is the U.S. government's official web portal to all federal, state and local government web resources and services.